Time,TemperatureF,DewpointF,PressureIn,WindDirection,WindDirectionDegrees,WindSpeedMPH,WindSpeedGustMPH,Humidity,HourlyPrecipIn,Conditions,Clouds,dailyrainin,SoftwareType,DateUTC
2013-03-19 00:09:00,46.4,6.4,29.84,WNW,292,3.1,-999.0,19,-99.99,,,0.00,Acu-Link.com,2013-03-19 06:09:00,
2013-03-19 00:24:00,46.6,6.6,29.85,ENE,67,0.0,-999.0,19,-99.99,,,0.00,Acu-Link.com,2013-03-19 06:24:00,
2013-03-19 00:40:00,45.5,6.8,29.85,SW,225,0.0,-999.0,20,-99.99,,,0.00,Acu-Link.com,2013-03-19 06:40:00,
2013-03-19 00:55:00,45.9,6.0,29.86,WNW,292,2.2,-999.0,19,-99.99,,,0.00,Acu-Link.com,2013-03-19 06:55:00,
2013-03-19 01:10:00,46.4,5.2,29.86,WNW,292,1.6,-999.0,18,-99.99,,,0.00,Acu-Link.com,2013-03-19 07:10:00,
2013-03-19 01:25:00,45.5,6.8,29.87,WSW,247,3.8,-999.0,20,-99.99,,,0.00,Acu-Link.com,2013-03-19 07:25:00,
2013-03-19 01:40:00,47.1,4.6,29.86,West,270,4.7,-999.0,17,-99.99,,,0.00,Acu-Link.com,2013-03-19 07:40:00,
2013-03-19 01:56:00,46.0,6.1,29.86,ENE,67,2.2,-999.0,19,-99.99,,,0.00,Acu-Link.com,2013-03-19 07:56:00,
2013-03-19 02:11:00,44.8,9.3,29.86,East,90,2.2,-999.0,23,-99.99,,,0.00,Acu-Link.com,2013-03-19 08:11:00,
2013-03-19 02:26:00,43.5,10.1,29.85,ESE,112,0.0,-999.0,25,-99.99,,,0.00,Acu-Link.com,2013-03-19 08:26:00,
2013-03-19 02:41:00,42.3,9.9,29.85,East,90,1.6,-999.0,26,-99.99,,,0.00,Acu-Link.com,2013-03-19 08:41:00,
2013-03-19 02:57:00,41.7,9.4,29.86,East,90,0.0,-999.0,26,-99.99,,,0.00,Acu-Link.com,2013-03-19 08:57:00,
2013-03-19 03:12:00,41.2,9.8,29.85,NW,315,1.6,-999.0,27,-99.99,,,0.00,Acu-Link.com,2013-03-19 09:12:00,
2013-03-19 03:27:00,41.5,9.2,29.84,West,270,3.1,-999.0,26,-99.99,,,0.00,Acu-Link.com,2013-03-19 09:27:00,
2013-03-19 03:42:00,42.1,8.8,29.84,West,270,2.2,-999.0,25,-99.99,,,0.00,Acu-Link.com,2013-03-19 09:42:00,
2013-03-19 03:57:00,41.7,8.5,29.83,NW,315,2.2,-999.0,25,-99.99,,,0.00,Acu-Link.com,2013-03-19 09:57:00,
2013-03-19 04:13:00,41.4,7.3,29.83,WSW,247,0.0,-999.0,24,-99.99,,,0.00,Acu-Link.com,2013-03-19 10:13:00,
2013-03-19 04:28:00,40.8,10.3,29.84,East,90,3.1,-999.0,28,-99.99,,,0.00,Acu-Link.com,2013-03-19 10:28:00,
2013-03-19 04:43:00,40.5,10.0,29.83,North,0,1.1,-999.0,28,-99.99,,,0.00,Acu-Link.com,2013-03-19 10:43:00,
2013-03-19 04:58:00,40.1,8.8,29.84,NW,315,0.0,-999.0,27,-99.99,,,0.00,Acu-Link.com,2013-03-19 10:58:00,
2013-03-19 05:13:00,39.6,9.2,29.83,NW,315,0.0,-999.0,28,-99.99,,,0.00,Acu-Link.com,2013-03-19 11:13:00,
2013-03-19 05:29:00,39.7,10.1,29.83,SW,225,0.0,-999.0,29,-99.99,,,0.00,Acu-Link.com,2013-03-19 11:29:00,
2013-03-19 05:44:00,41.2,12.9,29.83,SW,225,0.0,-999.0,31,-99.99,,,0.00,Acu-Link.com,2013-03-19 11:44:00,
2013-03-19 05:59:00,39.7,10.1,29.84,West,270,0.0,-999.0,29,-99.99,,,0.00,Acu-Link.com,2013-03-19 11:59:00,
2013-03-19 06:14:00,40.1,10.4,29.84,SW,225,0.0,-999.0,29,-99.99,,,0.00,Acu-Link.com,2013-03-19 12:14:00,
2013-03-19 06:29:00,40.1,9.6,29.84,West,270,1.6,-999.0,28,-99.99,,,0.00,Acu-Link.com,2013-03-19 12:29:00,
2013-03-19 06:45:00,40.5,10.0,29.84,WNW,292,0.0,-999.0,28,-99.99,,,0.00,Acu-Link.com,2013-03-19 12:45:00,
2013-03-19 07:00:00,41.2,9.8,29.85,NNW,337,1.1,-999.0,27,-99.99,,,0.00,Acu-Link.com,2013-03-19 13:00:00,
2013-03-19 07:15:00,42.3,9.0,29.85,North,0,2.7,-999.0,25,-99.99,,,0.00,Acu-Link.com,2013-03-19 13:15:00,
2013-03-19 07:30:00,43.0,8.7,29.86,NNE,22,4.3,-999.0,24,-99.99,,,0.00,Acu-Link.com,2013-03-19 13:30:00,
2013-03-19 07:46:00,43.3,8.1,29.86,North,0,4.3,-999.0,23,-99.99,,,0.00,Acu-Link.com,2013-03-19 13:46:00,
2013-03-19 08:16:00,44.2,7.8,29.87,North,0,2.7,-999.0,22,-99.99,,,0.00,Acu-Link.com,2013-03-19 14:16:00,
2013-03-19 08:31:00,45.0,10.4,29.87,NNW,337,3.8,-999.0,24,-99.99,,,0.00,Acu-Link.com,2013-03-19 14:31:00,
2013-03-19 08:46:00,45.9,9.2,29.88,ENE,67,1.1,-999.0,22,-99.99,,,0.00,Acu-Link.com,2013-03-19 14:46:00,
2013-03-19 09:01:00,46.2,10.5,29.88,SSW,202,0.0,-999.0,23,-99.99,,,0.00,Acu-Link.com,2013-03-19 15:01:00,
2013-03-19 09:17:00,46.4,11.6,29.89,NNE,22,0.0,-999.0,24,-99.99,,,0.00,Acu-Link.com,2013-03-19 15:17:00,
2013-03-19 09:32:00,47.7,11.7,29.88,WNW,292,4.7,-999.0,23,-99.99,,,0.00,Acu-Link.com,2013-03-19 15:32:00,
2013-03-19 09:47:00,49.3,9.9,29.89,NNW,337,2.7,-999.0,20,-99.99,,,0.00,Acu-Link.com,2013-03-19 15:47:00,
2013-03-19 10:02:00,50.9,8.9,29.90,NNW,337,2.2,-999.0,18,-99.99,,,0.00,Acu-Link.com,2013-03-19 16:02:00,
2013-03-19 10:17:00,51.8,9.7,29.89,SW,225,1.6,-999.0,18,-99.99,,,0.00,Acu-Link.com,2013-03-19 16:17:00,
2013-03-19 10:33:00,52.9,10.6,29.89,NE,45,2.2,-999.0,18,-99.99,,,0.00,Acu-Link.com,2013-03-19 16:33:00,
2013-03-19 10:48:00,53.1,10.7,29.90,ENE,67,1.6,-999.0,18,-99.99,,,0.00,Acu-Link.com,2013-03-19 16:48:00,
2013-03-19 11:03:00,54.1,10.3,29.90,SE,135,1.1,-999.0,17,-99.99,,,0.00,Acu-Link.com,2013-03-19 17:03:00,
2013-03-19 11:18:00,54.3,10.5,29.91,North,0,1.1,-999.0,17,-99.99,,,0.00,Acu-Link.com,2013-03-19 17:18:00,
2013-03-19 11:34:00,56.1,10.6,29.91,East,90,0.0,-999.0,16,-99.99,,,0.00,Acu-Link.com,2013-03-19 17:34:00,
2013-03-19 11:49:00,56.8,11.1,29.91,ESE,112,1.1,-999.0,16,-99.99,,,0.00,Acu-Link.com,2013-03-19 17:49:00,
2013-03-19 12:04:00,56.8,11.1,29.91,East,90,2.2,-999.0,16,-99.99,,,0.00,Acu-Link.com,2013-03-19 18:04:00,
2013-03-19 12:19:00,55.9,10.4,29.90,NE,45,2.7,-999.0,16,-99.99,,,0.00,Acu-Link.com,2013-03-19 18:19:00,
2013-03-19 12:34:00,57.2,12.8,29.90,ENE,67,1.1,-999.0,17,-99.99,,,0.00,Acu-Link.com,2013-03-19 18:34:00,
2013-03-19 12:50:00,58.5,12.5,29.89,NE,45,0.0,-999.0,16,-99.99,,,0.00,Acu-Link.com,2013-03-19 18:50:00,
2013-03-19 13:05:00,59.5,13.3,29.89,East,90,3.8,-999.0,16,-99.99,,,0.00,Acu-Link.com,2013-03-19 19:05:00,
2013-03-19 13:20:00,61.2,16.0,29.88,SE,135,3.1,-999.0,17,-99.99,,,0.00,Acu-Link.com,2013-03-19 19:20:00,
2013-03-19 13:35:00,61.0,18.4,29.88,WSW,247,6.7,-999.0,19,-99.99,,,0.00,Acu-Link.com,2013-03-19 19:35:00,
2013-03-19 13:50:00,62.8,18.7,29.88,WSW,247,9.4,-999.0,18,-99.99,,,0.00,Acu-Link.com,2013-03-19 19:50:00,
2013-03-19 14:06:00,64.8,17.5,29.87,WSW,247,7.8,-999.0,16,-99.99,,,0.00,Acu-Link.com,2013-03-19 20:06:00,
2013-03-19 14:21:00,64.6,14.3,29.87,WSW,247,6.7,-999.0,14,-99.99,,,0.00,Acu-Link.com,2013-03-19 20:21:00,
2013-03-19 14:36:00,64.9,14.6,29.87,West,270,7.4,-999.0,14,-99.99,,,0.00,Acu-Link.com,2013-03-19 20:36:00,
2013-03-19 14:51:00,67.8,16.9,29.85,West,270,8.3,-999.0,14,-99.99,,,0.00,Acu-Link.com,2013-03-19 20:51:00,
2013-03-19 15:06:00,65.1,14.8,29.86,NW,315,12.5,-999.0,14,-99.99,,,0.00,Acu-Link.com,2013-03-19 21:06:00,
2013-03-19 15:22:00,66.2,15.6,29.85,NW,315,8.9,-999.0,14,-99.99,,,0.00,Acu-Link.com,2013-03-19 21:22:00,
2013-03-19 15:37:00,64.6,18.8,29.86,WSW,247,15.4,-999.0,17,-99.99,,,0.00,Acu-Link.com,2013-03-19 21:37:00,
2013-03-19 15:52:00,64.4,18.7,29.86,WNW,292,9.8,-999.0,17,-99.99,,,0.00,Acu-Link.com,2013-03-19 21:52:00,
2013-03-19 16:07:00,64.8,17.5,29.87,NNW,337,8.9,-999.0,16,-99.99,,,0.00,Acu-Link.com,2013-03-19 22:07:00,
2013-03-19 16:23:00,64.8,17.5,29.87,ENE,67,11.4,-999.0,16,-99.99,,,0.00,Acu-Link.com,2013-03-19 22:23:00,
2013-03-19 16:38:00,63.9,16.8,29.87,NNW,337,7.8,-999.0,16,-99.99,,,0.00,Acu-Link.com,2013-03-19 22:38:00,
2013-03-19 16:53:00,64.0,17.0,29.88,West,270,8.9,-999.0,16,-99.99,,,0.00,Acu-Link.com,2013-03-19 22:53:00,
2013-03-19 17:08:00,64.4,17.2,29.88,WNW,292,9.4,-999.0,16,-99.99,,,0.00,Acu-Link.com,2013-03-19 23:08:00,
2013-03-19 17:23:00,63.9,16.8,29.88,NW,315,7.8,-999.0,16,-99.99,,,0.00,Acu-Link.com,2013-03-19 23:23:00,
2013-03-19 17:39:00,63.9,16.8,29.89,NE,45,9.8,-999.0,16,-99.99,,,0.00,Acu-Link.com,2013-03-19 23:39:00,
2013-03-19 17:54:00,64.2,17.1,29.90,North,0,14.1,-999.0,16,-99.99,,,0.00,Acu-Link.com,2013-03-19 23:54:00,
2013-03-19 18:09:00,64.0,17.0,29.90,NNE,22,6.3,-999.0,16,-99.99,,,0.00,Acu-Link.com,2013-03-20 00:09:00,
2013-03-19 18:24:00,62.6,17.2,29.91,NNW,337,5.8,-999.0,17,-99.99,,,0.00,Acu-Link.com,2013-03-20 00:24:00,
2013-03-19 18:39:00,61.7,16.5,29.92,NNW,337,7.4,-999.0,17,-99.99,,,0.00,Acu-Link.com,2013-03-20 00:39:00,
2013-03-19 18:55:00,62.1,16.8,29.91,West,270,7.8,-999.0,17,-99.99,,,0.00,Acu-Link.com,2013-03-20 00:55:00,
2013-03-19 19:10:00,60.3,16.6,29.92,NNW,337,3.8,-999.0,18,-99.99,,,0.00,Acu-Link.com,2013-03-20 01:10:00,
2013-03-19 19:25:00,58.6,16.5,29.93,NNW,337,5.8,-999.0,19,-99.99,,,0.00,Acu-Link.com,2013-03-20 01:25:00,
2013-03-19 19:40:00,57.6,16.8,29.93,West,270,4.7,-999.0,20,-99.99,,,0.00,Acu-Link.com,2013-03-20 01:40:00,
2013-03-19 19:55:00,57.0,17.5,29.94,NW,315,4.3,-999.0,21,-99.99,,,0.00,Acu-Link.com,2013-03-20 01:55:00,
2013-03-19 20:11:00,55.9,18.7,29.95,NNE,22,7.4,-999.0,23,-99.99,,,0.00,Acu-Link.com,2013-03-20 02:11:00,
2013-03-19 20:26:00,54.7,18.6,29.95,NW,315,4.7,-999.0,24,-99.99,,,0.00,Acu-Link.com,2013-03-20 02:26:00,
2013-03-19 20:41:00,53.8,18.8,29.97,NNW,337,4.7,-999.0,25,-99.99,,,0.00,Acu-Link.com,2013-03-20 02:41:00,
2013-03-19 20:56:00,53.4,18.5,29.97,NNW,337,6.7,-999.0,25,-99.99,,,0.00,Acu-Link.com,2013-03-20 02:56:00,
2013-03-19 21:12:00,52.3,17.6,29.97,NNE,22,6.7,-999.0,25,-99.99,,,0.00,Acu-Link.com,2013-03-20 03:12:00,
2013-03-19 21:27:00,50.9,18.1,29.99,NNW,337,3.1,-999.0,27,-99.99,,,0.00,Acu-Link.com,2013-03-20 03:27:00,
2013-03-19 21:42:00,50.2,18.4,29.99,NNW,337,3.1,-999.0,28,-99.99,,,0.00,Acu-Link.com,2013-03-20 03:42:00,
2013-03-19 21:57:00,50.0,19.0,30.00,NNW,337,3.1,-999.0,29,-99.99,,,0.00,Acu-Link.com,2013-03-20 03:57:00,
2013-03-19 22:12:00,49.5,18.5,30.00,NNW,337,4.3,-999.0,29,-99.99,,,0.00,Acu-Link.com,2013-03-20 04:12:00,
2013-03-19 22:28:00,48.9,18.9,30.01,NE,45,2.2,-999.0,30,-99.99,,,0.00,Acu-Link.com,2013-03-20 04:28:00,
2013-03-19 22:43:00,46.8,18.5,30.02,NE,45,4.3,-999.0,32,-99.99,,,0.00,Acu-Link.com,2013-03-20 04:43:00,
2013-03-19 22:58:00,46.4,18.9,30.03,NW,315,4.3,-999.0,33,-99.99,,,0.00,Acu-Link.com,2013-03-20 04:58:00,
2013-03-19 23:13:00,48.0,19.6,30.02,NNW,337,5.1,-999.0,32,-99.99,,,0.00,Acu-Link.com,2013-03-20 05:13:00,
2013-03-19 23:28:00,46.4,18.2,30.03,NE,45,2.2,-999.0,32,-99.99,,,0.00,Acu-Link.com,2013-03-20 05:28:00,
2013-03-19 23:44:00,45.0,18.3,30.04,NE,45,2.7,-999.0,34,-99.99,,,0.00,Acu-Link.com,2013-03-20 05:44:00,
2013-03-19 23:59:00,44.4,18.5,30.04,ENE,67,3.1,-999.0,35,-99.99,,,0.00,Acu-Link.com,2013-03-20 05:59:00,